TIMESTAMP,CO2_1_1_1,H2O_1_1_1,TAU_1_1_1,TAU_SSITC_TEST_1_1_1,H_1_1_1,H_SSITC_TEST_1_1_1,LE_1_1_1,LE_SSITC_TEST_1_1_1,FC_1_1_1,FC_SSITC_TEST_1_1_1,WD_0_0_1,WS_0_0_1,WS_MAX_0_0_1,U_SIGMA_0_0_1,V_SIGMA_0_0_1,W_SIGMA_0_0_1,USTAR_0_0_1,MO_LENGTH_0_0_1,ZL_0_0_1,FETCH_MAX_0_0_1,FETCH_70_0_0_1,FETCH_80_0_0_1,FETCH_90_0_0_1,PA_0_0_1,RH_0_0_1,TA_0_0_1,VPD_0_0_1,T_SONIC_0_0_1,T_SONIC_SIGMA_0_0_1
[yyyymmddHHMMSS],[mmolCO2 mol-1],[mmolH2O mol-1],[kg m-1 s-2],[#],[W m-2],[#],[W m-2],[#],[umolCO2 m-2 s-1],[#],[Decimal degrees],[m s-1],[m s-1],[m s-1],[m s-1],[m s-1],[m s-1],[m],[#],[m],[m],[m],[m],[kPa],[%],[deg C],[hPa],[deg C],[deg C]
20211014003000,433.83322412409632,14.997433711852002,0.85179514111123389,0,-19.357430049083831,0,5.1070780121660730,2,5.4767105397209503,0,139.54182641167594,4.2441999389585892,11.393402715234089,1.8739253282373158,1.4469170007751844,1.1386609156325911,0.87390494478605230,2853.6561801255489,6.6581251561861525E-003,101.32362668288687,185.25190508959329,221.69921639549460,277.54111114110913,92.801973362648653,81.468965517241386,15.079310344827604,3.1666357032256749,15.414227898014644,7.7899362263768201E-002
20211014010000,433.27198963051279,15.314148258199019,0.59666368376484458,0,-14.919500530473146,0,18.997936645267636,1,4.5453117496141884,0,144.52924548928380,4.2951462887522878,10.801258073755006,1.7272317640042949,1.4186416157771542,1.0313853373922210,0.73154457300439846,2171.7856263115991,8.7485614463100585E-003,95.128526917400663,173.92528689255391,208.14414727229106,260.57177310187507,92.792330388467050,82.963333333333338,15.120000000000005,2.9189042004019168,15.489731537816738,7.7015713396331814E-002
20211014013000,431.64002572105596,15.571836634703860,0.97768978926601924,0,-11.905442289708159,0,17.706572833917431,0,5.6337099459906304,0,148.91992921594579,4.4722161758398586,12.670022819787723,2.1719093754006069,1.6535602436487684,1.2246525367561636,0.93658013796564477,5711.2081647370233,3.3267917141092105E-003,101.03702391853534,184.72790382909525,221.07212071846780,276.75606176735164,92.783349166316540,84.163333333333327,15.154666666666685,2.7193631694568583,15.523918495112525,7.1689534138774227E-002
20211014020000,431.22227225568645,15.664423235520006,1.1029055175854308,0,-12.973266648868762,0,13.073395419000345,0,10.251254433723703,0,150.26123209488006,3.7025643706369284,11.056343705706245,1.8850234424886467,1.5119683284000254,1.2152294904822101,0.99457292824815113,6276.2766293716304,3.0272725569622074E-003,106.66883863205339,195.02465730058378,233.39470479630802,292.18247478178677,92.782360918619787,85.293333333333337,15.039333333333332,2.5066602206282140,15.463806796603762,6.8665800098154164E-002
20211014023000,429.39813959932036,15.757413694082297,0.96317910141215812,0,-7.2379418047434685,0,13.720530183994841,1,6.2677586835398849,0,151.06297066351317,4.2349356175239192,11.508086317084070,2.0415333598205327,1.6150223264001362,1.1962513124003287,0.92948025768057507,9182.3661578755891,2.0691834406651234E-003,102.32672951713404,187.08589699383734,223.89403629680652,280.28876521074756,92.782497737413195,85.713333333333338,15.055000000000007,2.4375301892344554,15.465419089423335,6.6434918567359905E-002
20211014030000,428.99881701772671,15.960801942452983,1.1161251798677667,0,-6.1059400266739416,0,3.8438556307345082,0,7.1344772229296796,0,156.64038104865227,3.6955881695386630,11.801554623960977,1.9118878652828157,1.6461285830324970,1.2594571870628088,1.0004256497040673,13573.951125738678,1.3997398269670019E-003,104.14922124996538,190.41799313537882,227.88170434900243,285.28085241819178,92.794509428168396,87.180000000000007,14.992666666666651,2.1785354352037483,15.456562607659237,6.2046813978436428E-002
20211014033000,429.50527449464482,16.183849194239638,0.72708709156258167,0,-12.835767542919521,0,-3.7317019864835976,2,7.3164973513008755,0,161.08880502552577,3.4603659839463363,8.9242500854622300,1.6474797559867895,1.4395965151391714,1.0859845080244288,0.80737536174651070,3394.1532683289179,5.5978615277307402E-003,98.777126845915163,180.59609122314174,216.12739630880566,270.56585356879856,92.796312471137156,88.856666666666669,14.912666666666667,1.8838838602077295,15.424205813937760,6.3641004708408250E-002
20211014040000,429.93356550959544,16.332333482979237,0.76855085775701926,0,-5.9347698887820464,1,4.9503529927203527,1,4.6569760996217067,0,153.72260329362422,4.2321896409041493,11.893576803576707,1.7787830675386433,1.4211215320126172,1.1174688678127154,0.83017697185096406,7979.7729291585310,2.3810201328627973E-003,98.719534661007827,180.49079434104584,216.00138283413580,270.40809965181478,92.779613246744788,89.650000000000006,14.913666666666643,1.7498762307950255,15.408096312628857,7.9238470769563654E-002
20211014043000,430.37418305787520,16.256839867896613,0.78235787140124846,0,-26.503219865465898,0,2.0306467372719634,2,5.2366171402645731,0,149.82433852036118,4.1915663331013349,11.780397687094425,1.9212267498821309,1.5985614239327086,1.0941713212901987,0.83756712775288977,1834.4646392678292,1.0357245156594173E-002,101.11191530831798,184.86482917500160,221.23598538629639,276.96120088658421,92.741793165364584,89.963333333333338,14.781333333333350,1.6824883204265371,15.297200821770559,9.5102077076163832E-002
20211014050000,430.79091669346474,16.356256909300626,0.75242442022636791,0,-14.964716384255521,0,-7.4316222113350516,1,4.5318949258836128,0,151.87823725062236,3.6127762410990130,10.174969999075628,1.6135600115520190,1.4929952665022790,1.1661246609266436,0.82154470832516380,3065.8287524935440,6.1973454924860519E-003,94.615846251156540,172.98794312354761,207.02238618172956,259.16746132950550,92.731488543258550,90.113333333333330,14.848333333333358,1.6645179050030334,15.376024380297338,7.7340242736627179E-002
20211014053000,430.77775682478330,16.466130093027491,0.62008763510361053,0,-13.224077645770034,0,3.6071372999689895,0,6.3181063345364077,0,156.56872661033299,3.4208912807601561,9.0424178213331867,1.5707147050982904,1.3269441174196963,0.97549498476957430,0.74607892296876555,2597.9495217330996,7.3134600349451925E-003,101.04217450469817,184.73732074329612,221.08339035965278,276.77017002081095,92.704500214843748,90.026666666666671,14.962666666666678,1.6915233713935891,15.510781269497386,7.5847415351664033E-002
20211014060000,431.11165677222459,16.527746969444326,0.73326967565977375,0,-11.825978797579571,0,3.7811614025668705,2,5.3145979583267078,0,150.04218555632133,3.4204405029585749,9.5031001701804474,1.6448833393865607,1.3853171813313367,1.0662301595389223,0.81147251820865818,3737.1319191478237,5.0841127396788711E-003,100.64522673481591,184.01157361995342,220.21485641141325,275.68286858160269,92.676835659505201,90.230000000000004,14.980999999999995,1.6589944683806903,15.525707895067001,6.8920479624327832E-002
20211014063000,432.03613763324017,16.606785977220735,0.79312467760322047,0,-19.454475152148078,0,24.089095267865446,1,9.5110768508412651,0,156.03632480720825,3.0456553689613699,9.4488784085114546,1.6671629499493312,1.3363582463432016,0.96684202838710365,0.84403455790712489,2556.0237951184536,7.4334206263206894E-003,112.32040637023020,205.35752560105260,245.76050910058166,307.66299439101783,92.659976614149301,90.633333333333326,14.983000000000004,1.5907113011332126,15.550408033159044,6.8981245475415315E-002
20211014070000,431.21349089991645,16.282277892052250,0.56280863304345929,0,-42.028993038808480,0,5.9338511952164055,1,8.2547783884107790,0,163.28521674739824,3.2331958307561477,10.384727000309242,1.5700726233751028,1.3985085699008042,0.99221008648350784,0.71094185638336704,706.94153251245848,2.6876338602535226E-002,95.904559919520537,175.34412272346069,209.84213138615891,262.69744772231280,92.645583077256944,89.173333333333332,14.926333333333332,1.8319605857390615,15.475594226413307,0.13043115736004807
20211014073000,431.74829247107186,16.185719616863484,0.47972450082308637,0,-25.418580244324147,0,-8.4729553550471071,1,4.3886482520743044,0,153.95370518764364,3.1086738758443051,8.3544333924216971,1.4159298688374327,1.1699349522189109,0.86553015243949494,0.65599935425266220,918.36071067745536,2.0689038391008802E-002,100.31176402338902,183.40189743098807,219.48522972669309,274.76946255298515,92.655646565104163,90.296666666666667,14.641666666666652,1.6120169922683454,15.193413761562852,0.17010233696457891
20211014080000,431.94552976086612,16.222726481170465,0.47813722821077748,0,-36.236161695074060,0,6.9989559461393691,0,8.8263860694165999,0,161.81038007376594,3.3908106684832302,8.5295390902323494,1.3947737259436035,1.3363724450422860,0.97176935883972759,0.65492844429800579,641.05267046512324,2.9638750254662113E-002,91.318637097068546,166.95959319895087,199.80799098404145,250.13589463327730,92.654783193576378,90.463333333333338,14.648333333333312,1.5850106554782202,15.218847384982666,0.14686482335015105
20211014083000,431.25921033236665,15.939547486230841,0.61211538986105474,0,-33.500258822519335,0,25.509703398542172,0,8.8214617471863228,0,171.46771307272078,3.2826336874187758,9.0013572450698867,1.5310272657757262,1.4281142369995434,1.0498563439250013,0.74127923213215163,1005.2695324455412,1.8900403709419387E-002,94.784312575094731,173.29595329328487,207.39099568801004,259.62891669057342,92.640178862697667,87.836666666666673,14.829666666666640,2.0453546121208386,15.344247543382494,0.12741572238106608
20211014090000,427.85342906490280,13.857636465468094,0.93565205705669741,0,-103.96192819678183,0,-79.879587403467184,2,5.3236534068657475,2,181.85127142608917,4.3393224539180792,12.128555500885401,2.1394328962464737,1.7712463417143307,1.3004993431420655,0.91568731620393751,610.28288064551703,3.1133103356763100E-002,94.572430149972575,172.90856464372803,206.92739041493215,259.04853790208290,92.621965729817717,77.972666666666669,14.503666666666675,3.6269300000144131,14.768299146864138,0.30316960855728431
20211014093000,424.81121010589590,11.284741485328603,0.97677457797912681,0,-28.796510923886849,1,108.45253933960231,0,8.6597162155819341,0,185.77355173890945,3.9893283252012104,13.145428485416097,2.0089820548695703,1.6355384747094099,1.2337337494977927,0.93361999342473434,2334.6019585470940,8.1384323055328778E-003,100.18757352522871,183.17483759182315,219.21349709110478,274.42928553819610,92.644931614583328,67.158666666666662,13.642666666666685,5.1138557621692966,13.602241013420951,0.40151900524777417
20211014100000,422.85367339235347,9.8093832966024355,0.57534941125280459,0,-58.650477189280231,0,74.002413162055788,0,8.4870914623438498,0,183.29673743685362,3.7295021944309363,12.007250258040612,1.7037893828569228,1.5317492136850928,1.0795841086958469,0.71512087159458915,515.08494026785104,3.6887119996402429E-002,90.064424055211973,164.66649174770379,197.06373421318136,246.70041080151532,92.670435723090279,61.905000000000001,12.748666666666679,5.5955352882976968,12.605247137281594,0.21544673178042190
20211014103000,422.40093540525243,9.3459339503193117,0.75894931487172179,0,-68.129190297396221,0,74.266439791594962,0,8.6000917906297101,0,179.83218643967658,3.7271486325742584,11.187514906583266,1.8038021757131786,1.5949616018573940,1.1454121121809977,0.82072924824957405,670.32667526657224,2.8344388939085818E-002,95.905919012794470,175.34660757942603,209.84510512410833,262.70117048934890,92.683714542968758,60.280000000000001,12.418666666666695,5.7092441276317105,12.240101040310378,0.19644391449179657
20211014110000,422.60065482974420,9.1856469225742128,0.63350895211650948,0,-76.518065047493067,0,65.990143644742233,0,9.2114183658115376,0,180.00141480396491,3.3456176956356600,8.7999427016067919,1.5445032964329026,1.4218981052357058,1.0452578425447485,0.74929314089574617,454.17745345771107,4.1833868800290656E-002,95.939523614040127,175.40804750814092,209.91863302680335,262.79321869838469,92.692405348390693,60.728000000000002,12.044666666666672,5.5076257294568123,11.875104991459352,0.19448729914441867
20211014113000,421.79776623212626,8.5058432731348859,0.76454367508772647,0,-48.648290508466502,0,57.885303989366548,0,5.9445477764784931,0,190.46950075293481,4.2982097096353593,12.295068587130709,1.9180056567207733,1.5537056013199235,1.1793339636771210,0.82247827314777366,944.82936034476791,2.0109451290830870E-002,93.852317786915435,171.59196957600099,205.35176238193520,257.07603857559479,92.711914035590283,57.478666666666669,11.716000000000008,5.8353860333183540,11.433483475579123,0.20554178550547472
20211014120000,422.41492631445010,8.4708827185847824,0.70523486168142813,0,-50.866803448472211,0,47.876170935551727,0,6.7577370713665683,0,193.04786947805337,3.6920193220415141,11.343257301699310,1.8656244200751482,1.5296278870690112,1.0994387305374118,0.78913251357323799,798.19767911610404,2.3803627218059478E-002,96.036875941242201,175.58603861119860,210.13164291760134,263.05988180499060,92.728165650173622,59.271000000000001,11.192666666666696,5.3990619341770394,10.923354589674204,0.17858012458451500
20211014123000,422.96292554267689,8.4860912486974112,0.59963118763815138,0,-35.871875024349890,0,31.557111482223295,0,4.8563087219712671,0,193.82887202264712,4.4902332712895792,13.762175171157777,1.8682116138435301,1.6271096839375319,1.1719265831668353,0.72707038744234365,885.37370451508343,2.1459864804101274E-002,85.466464881663697,156.25995593459268,187.00325790409269,234.10588828208429,92.745654987643448,61.006000000000000,10.788333333333355,5.0320272718836589,10.516993013445358,0.14569605151248005
20211014130000,423.82401710675839,8.5245450550523643,0.96820020485709501,0,-36.391114382286695,1,49.576328795315746,0,6.8332727063229903,0,191.94927211324563,4.3983274134327202,12.322668185575706,2.0386947602676653,1.8104340617915571,1.2505153045161410,0.92316520069028973,1786.9413991993717,1.0632693387994052E-002,98.221651231735379,179.58050464056041,214.91199855388831,269.04431980398624,92.780371100694452,62.706333333333333,10.449333333333357,4.7050849939144612,10.175246510823627,0.12948265616525059
20211014133000,423.77205599076336,8.5382976036398048,0.92753706991557372,0,-10.806585430389513,1,42.649694609687721,0,3.1135020121561578,0,200.06875592976792,4.4524460851730101,11.839559740228159,2.0629725593675845,1.6204260667256511,1.2434132212378930,0.90305602473311897,5634.3666231368916,3.3721625287887092E-003,96.946976800820480,177.24999324428939,212.12297163346784,265.55278905759388,92.817132078707701,63.731333333333332,10.236666666666679,4.5112251017262501,9.9633865342028685,8.6867388764461928E-002
20211014140000,423.78488464947714,8.5696910599208831,0.99113596482256472,0,25.670452661072780,0,40.753632870055377,0,1.4511536574104060,0,194.48191056630696,4.2513409385276617,11.582553546504993,2.0895537323103883,1.7558017118440081,1.3037373021044412,0.93287920228455201,-2615.7648872088948,-7.2636497618383472E-003,95.799480789487049,175.15200456048984,209.61221501274628,262.40961970566957,92.866849195963539,64.994000000000000,10.006333333333316,4.2875735034156888,9.7038156365288160,0.12157701593579466
20211014143000,423.93637246615424,8.5702290023606995,1.2793185173261559,0,21.426321141115292,0,62.138892872123215,0,2.8097524045062685,1,202.00563244440966,4.3705796763711211,13.205024583405033,2.3972562984968460,1.7647717257434399,1.2557903480918744,1.0590925271928402,-4586.7262193933257,-4.1423880761980777E-003,109.26178975502354,199.76539893271834,239.06816172766548,299.28496962295560,92.895374223524314,66.440333333333328,9.6836666666666815,4.0224331064907952,9.3771798875596915,0.14104276857584874
20211014150000,423.75550334232003,8.5677551041244104,0.73758641260338309,0,57.333154963149994,0,31.102626229868005,0,7.6779627911739867E-002,2,205.50566544115162,4.5520192947002514,12.321233408908320,1.9576553364658862,1.7411609513623170,1.2749003956488643,0.80375186659970932,-749.22217870907559,-2.5359633684012624E-002,86.570811932146739,158.27905455630250,189.41960326929583,237.13086594534667,92.896648482865984,67.748000000000005,9.3896666666666420,3.7900395482218356,9.0388466296818137,0.15652070841992133
20211014153000,424.12593164430893,8.7133552572517878,1.2875404178172443,0,104.41609438857191,0,53.528338390910527,0,2.2855758665052486,1,210.55204965256945,4.4416478186972217,13.169765074909025,2.1041307314309607,1.7170989928872864,1.2456128455704991,1.0619545214062025,-949.00728073817334,-2.0020921214873179E-002,110.21308825366832,201.50467598933577,241.14963214687799,301.89072359154437,92.913966172092017,68.680666666666667,9.4396666666666533,3.6928435298621354,9.0520815853543013,0.21590542372411900
20211014160000,424.50453554879215,8.8777231490492561,1.2141921780271807,0,134.22404546987767,0,38.163112272594489,0,0.45543340891898632,2,221.79230264969499,4.6273508970944173,13.458000370685522,2.1429024444350930,1.7754098475618647,1.2944425764910568,1.0319353777136093,-677.51271777110753,-2.8043754016170371E-002,104.45053521695448,190.96889116619576,228.54098859056998,286.10619805512022,92.930731565816160,68.122666666666674,9.8419999999999845,3.8616043621802794,9.3681310375940257,0.31974495857510010
20211014163000,424.26610366447574,9.0277952566432074,1.7338301119538291,0,256.88257922261243,0,80.240593131492574,0,0.17440018026075418,2,205.08833362243340,3.9821914739025810,13.075990759322375,2.1695560130166971,1.7640187571951635,1.4378429870947420,1.2341223229217160,-605.63465387823169,-3.1372048937972630E-002,110.80830083364681,202.59291441885230,242.45197560703619,303.52110306196550,92.950404143880206,67.029333333333327,10.337333333333333,4.1286901525963939,9.8201904720730226,0.46869198422124875
20211014170000,424.29859223901769,9.1767756144606736,1.2689027901496110,0,223.31367617793217,0,85.982876013705294,0,-1.0076194793638269,2,218.09610639800923,3.7534943153955127,11.641899787398463,2.0565208720409260,2.0725408154147851,1.2852673767907670,1.0563522648213570,-436.96354609917131,-4.3481888065069495E-002,107.03039461445346,195.68569694877732,234.18580042331379,293.17283263197584,92.965361492422772,66.606333333333339,10.680000000000007,4.2783502512077307,10.149919039398526,0.46277472325601093
20211014173000,424.31237646963575,9.1905393421444384,1.6423043302418094,0,271.46274117794093,0,97.564344962279407,0,-2.7472913857536319,1,218.66782154182832,4.0266254638267558,12.254728860351923,2.3068790353254993,1.7160669122630503,1.2840383358094760,1.2013168342330862,-528.73812521278069,-3.5934613174251069E-002,118.71854303269127,217.05536000105903,259.75982920879562,325.18848194674530,92.978657652777784,67.498666666666665,10.504999999999995,4.1157286444321066,10.057028753492659,0.42381736113545293
20211014180000,424.25952873590762,9.2313922636390799,1.1883884769558051,0,211.35130474160758,0,43.058697130037821,0,-1.8394662627545271,1,217.20552748467159,4.7558483567706862,13.519124115304882,2.2364234895042161,1.9039988229443687,1.3393999045125207,1.0218637648119073,-418.02920777680384,-4.5451369537184517E-002,100.84191593348014,184.37118420591409,220.64521843698296,276.22163076900023,92.994027267135579,67.718000000000004,10.525333333333322,4.0935024149369728,9.9587029960794098,0.44052072865730485
20211014183000,424.12104971450935,9.3856357206466754,1.1411205545233545,0,170.50687646975391,0,44.982448494469800,0,-0.20569494323803500,2,227.77691028523998,4.4972880785425051,11.298168429325315,2.1110300665167694,1.6506859051002212,1.2452895720085644,1.0015498130205380,-487.89828858153481,-3.8942542830471168E-002,105.19053455287940,192.32184596294979,230.16012993280791,288.13317088130094,92.996675909722228,68.334666666666664,10.638333333333321,4.0456711881428236,10.169927187601729,0.34827389379946322
20211014190000,423.89408285843263,9.6030301605755444,1.2316970461938266,0,313.03412911872431,0,97.259571870317174,0,0.15556828789633678,2,222.29440356146910,4.1092542597368888,11.071084946774324,2.1118261183983011,1.8855485599820698,1.2235850529335230,1.0423376150968189,-299.54301260293033,-6.3429955634405372E-002,110.14233970526769,201.37532507876719,240.99483214361095,301.69693235669070,92.981345448133681,65.802666666666667,11.549333333333323,4.6416174704631423,10.959204417758542,0.48645660679288516
20211014193000,423.94101316645066,9.6495828128930334,1.0327885046413834,0,220.04432225704969,0,60.358606285943466,0,0.43278628043928002,0,218.07276374320253,3.5981428524001844,10.337554627589437,1.6479394531716791,1.6765412911451081,1.1539647089644431,0.95556368286642390,-328.26125948293605,-5.7880725949592822E-002,107.67343954987498,196.86138817939110,235.59280255062833,294.93423233442746,92.956490446831594,63.655999999999999,12.120999999999981,5.1226904597355896,11.527453791300502,0.43200089775769235
20211014200000,424.22210994641244,9.6736569560097116,0.80597454337809737,0,157.56757387404929,0,54.342312758797625,0,-0.25838118512949143,0,223.41972241248229,3.7642896933759014,10.997155047444203,1.9662531472199876,1.5890204563076826,1.0937454188815574,0.84458346268217677,-316.55606304968040,-6.0020963796918764E-002,101.82067247272265,186.16066331803708,222.78676789485169,278.90259656474859,92.966784926215283,62.457000000000001,12.449666666666644,5.4073294110155175,11.847274431864491,0.40007999100265623
20211014203000,424.43263163355294,9.6543879907390018,1.2620647870188970,0,187.31221280702201,0,68.457632143442297,0,-0.34478231731369169,1,226.93429012210146,4.0148480574706404,11.324086666573960,1.9873227095079795,1.7536600472178183,1.2321304612417308,1.0573475019277971,-522.50411330664156,-3.6363350098355084E-002,110.79081038513188,202.56093630067457,242.41370596690280,303.47319401375921,92.970355856770837,61.241666666666667,12.719333333333338,5.6820338017365151,12.132925031026218,0.34056578098969426
20211014210000,424.29643747089779,9.5738908027199248,1.3889815050234062,0,146.73722071377600,0,65.024711198590907,1,0.31588483338644668,2,227.48447886165303,4.5663525961075830,12.771765670051066,2.1258646036388145,1.8313967103111231,1.3606828841464775,1.1088007506601010,-769.34545303396510,-2.4696318052017118E-002,106.29973242465343,194.34981343306964,232.58708904442236,291.17143569559732,93.001972710937494,61.231666666666669,12.599333333333334,5.6389489114858007,12.039553784688337,0.26766496032624837
20211014213000,423.95222468023042,9.4441906879010347,1.3576738319308879,0,149.65342368620944,0,69.404779987563458,0,1.9047652383850753,0,239.49464279427565,4.7700814189117553,11.953974497555066,2.0561493106002544,1.7412357617192111,1.3715744218600463,1.0948374955811859,-726.46341087166354,-2.6154104550430723E-002,104.55844791417215,191.16618999369922,228.77710489626796,286.40178765127399,93.051306001085081,62.709333333333333,12.037333333333322,5.2272306465584215,11.441562466091682,0.30470176546529609
20211014220000,423.61635233202367,9.3739226277603152,1.1908331071500169,0,70.598374613752412,0,51.281913580396328,0,1.7731733225446835,0,229.62813179941855,3.8941323574976097,10.566643965944468,1.9000231752930798,1.5664085465725035,1.1433182422074977,1.0242343088529606,-1261.1940287401449,-1.5065088770662694E-002,114.66758049918595,209.64890850157698,250.89619839802322,314.09226796835281,93.092263090060769,64.336333333333329,11.543000000000006,4.8386155646239279,11.062776684231267,0.17262082356638853
20211014223000,423.70319267480608,9.2228791756698332,1.1930788830369283,0,27.547817090689243,1,37.124318987999061,0,2.4033311055583613,0,232.20579418331670,3.8913477974150883,11.401543141123051,1.9818138640689811,1.4613721404996107,1.1732525646016014,1.0236502037855542,-3227.9164678173051,-5.8861498398214964E-003,112.26980073480395,205.26500235965381,245.64978241139289,307.52437771546039,93.150081308192057,66.206000000000003,10.875666666666689,4.3864025650369989,10.536517319565405,0.33527377800555497